Date/Time (UTC),ProbHail,ProbWind,ProbTor,MESH,VIL Density,Flash Rate,Max Flash Density,LJA sigma-level,Max 0-2km AzShear,LLAZ 98th%,MLAZ 98th%,MUCAPE,MLCAPE,CAPE -10C to -30C,MLCIN,SRH 0-1km AGL,EBShear,MeanWind 0-1km AGL,Norm. Sat. Growth Rate,PWAT,WBZ,AvgBeamHgt,size
2019/05/20 20:54,15,6,1,0.41,1.00,0,0.00,0.0,3,3,2,3126,2753,725,7,45,64.2,30.8,0,1.2,2712.7200000000003,1170.0,77
2019/05/20 20:56,37,10,1,0.72,1.40,1,0.04,0.0,3,3,3,4183,2926,855,13,74,71.7,30.8,0,1.3,2865.1200000000003,1170.0,59
2019/05/20 20:58,64,36,2,0.80,1.80,6,0.15,0.0,5,3,3,4296,2944,887,14,79,72.4,30.9,0,1.4,2834.6400000000003,1150.0,86
2019/05/20 21:00,83,64,2,1.11,2.60,8,0.40,0.0,5,3,5,4390,2994,914,14,83,72.9,30.9,0,1.4,2834.6400000000003,1100.0,70
2019/05/20 21:02,95,82,2,1.70,3.30,16,0.40,0.0,5,3,5,4415,3042,940,14,86,73.4,31.0,0,1.4,2865.1200000000003,1050.0,114
2019/05/20 21:04,96,82,2,1.93,3.30,17,0.41,0.0,4,4,5,4428,3084,956,14,88,73.7,31.0,0,1.4,2865.1200000000003,1020.0,121
2019/05/20 21:06,96,83,3,1.93,3.30,18,0.41,0.0,6,4,4,4471,3183,992,13,93,74.3,31.1,0,1.4,2895.6,970.0,204
2019/05/20 21:08,97,85,3,2.07,3.40,19,0.41,0.4,6,4,4,4507,3304,1029,13,98,74.7,31.1,0,1.5,2956.56,920.0,205
2019/05/20 21:10,97,85,4,2.07,3.40,25,0.43,2.3,8,4,4,4515,3330,1043,13,100,74.8,31.2,0,1.5,2956.56,900.0,219
2019/05/20 21:12,98,92,7,2.07,3.40,31,0.45,2.2,8,6,5,4526,3361,1056,13,102,74.8,31.2,0,1.5,2987.0400000000004,870.0,229
2019/05/20 21:14,98,89,7,1.96,3.20,31,0.49,0.0,8,6,6,4536,3377,1064,13,104,74.9,31.2,0,1.5,3017.5200000000004,830.0,227
2019/05/20 21:16,97,92,7,1.83,3.20,31,0.49,0.0,8,6,6,4538,3384,1066,14,104,74.9,31.3,0,1.5,3017.5200000000004,810.0,240
2019/05/20 21:18,98,95,7,2.13,3.40,34,0.49,1.5,8,6,6,4546,3390,1068,14,105,74.9,31.3,0,1.5,3017.5200000000004,790.0,274
2019/05/20 21:20,98,95,9,2.17,3.40,36,0.49,0.5,8,6,7,4542,3389,1069,14,105,74.9,31.3,0,1.5,3017.5200000000004,750.0,273
2019/05/20 21:22,98,95,9,2.28,3.60,36,0.49,0.0,8,6,7,4548,3399,1070,14,106,74.7,31.4,0,1.5,3017.5200000000004,710.0,297
2019/05/20 21:24,99,95,7,2.28,3.60,57,0.49,8.6,8,5,7,4544,3397,1070,14,106,74.5,31.4,0,1.5,3017.5200000000004,690.0,307
2019/05/20 21:26,99,92,4,2.28,3.60,57,0.49,0.0,6,4,6,4540,3390,1070,14,107,74.3,31.5,0,1.5,3017.5200000000004,660.0,327
2019/05/20 21:28,99,95,5,2.11,3.50,57,0.64,1.1,6,4,6,4542,3390,1067,14,108,73.9,31.5,0,1.5,3017.5200000000004,620.0,311
2019/05/20 21:30,99,92,4,1.96,3.50,57,0.64,0.0,6,4,6,4527,3379,1066,14,108,73.7,31.6,0,1.5,3017.5200000000004,610.0,327
2019/05/20 21:32,98,95,7,1.89,3.50,46,0.64,0.0,7,6,6,4521,3376,1059,15,108,73.4,31.6,0,1.5,3017.5200000000004,570.0,313
2019/05/20 21:34,98,95,8,1.77,3.60,46,0.64,0.0,6,6,6,4512,3378,1050,14,109,72.8,31.7,0,1.5,3017.5200000000004,540.0,332
2019/05/20 21:36,98,95,13,1.72,4.10,55,0.64,2.1,10,6,6,4508,3376,1053,14,109,73.0,31.7,0,1.5,3017.5200000000004,550.0,392
2019/05/20 21:38,98,95,16,1.71,4.10,58,0.64,0.2,11,6,6,4509,3389,1050,14,109,72.8,31.7,0,1.5,3017.5200000000004,530.0,465
2019/05/20 21:40,98,95,14,1.71,4.10,58,0.64,0.0,11,6,6,4506,3392,1044,14,109,72.4,31.8,0,1.5,3017.5200000000004,510.0,529
2019/05/20 21:42,97,95,14,1.31,3.60,58,0.64,0.1,11,6,6,4509,3409,1041,13,109,72.1,31.8,0,1.5,3017.5200000000004,500.0,549
2019/05/20 21:44,96,92,10,1.26,3.10,58,0.64,0.0,9,5,6,4512,3415,1038,13,110,71.8,31.8,0,1.5,3017.5200000000004,500.0,516
2019/05/20 21:46,95,92,8,1.26,3.10,43,0.64,0.0,9,5,6,4497,3416,1039,13,110,71.5,31.8,0,1.5,3017.5200000000004,480.0,544
2019/05/20 21:48,99,95,8,2.25,3.50,45,0.64,1.5,9,5,6,4490,3427,1035,13,111,71.2,31.9,0,1.5,3017.5200000000004,470.0,543
2019/05/20 21:50,99,95,9,2.25,3.50,72,0.64,2.8,9,5,7,4489,3440,1033,12,110,70.9,31.9,0,1.5,3017.5200000000004,460.0,566
2019/05/20 21:52,99,95,12,2.25,3.50,72,0.64,0.0,8,6,6,4480,3467,1027,12,110,70.3,31.9,0,1.5,3017.5200000000004,440.0,618
2019/05/20 21:54,99,95,19,1.78,3.30,72,0.64,1.1,8,6,7,4279,3347,1175,18,189,68.6,31.9,0,1.6,2987.0400000000004,420.0,583
2019/05/20 21:56,98,95,17,1.46,3.60,72,0.64,0.0,8,6,7,4278,3352,1172,18,189,68.6,32.0,0,1.6,2987.0400000000004,420.0,585
2019/05/20 21:58,98,95,16,1.45,3.60,67,0.64,0.0,9,5,6,4229,3363,1144,17,190,68.0,32.0,0,1.6,2926.08,400.0,643
2019/05/20 22:00,98,95,22,1.45,3.60,76,0.60,1.2,11,5,7,4212,3374,1133,17,191,67.8,32.1,0,1.6,2926.08,390.0,626
2019/05/20 22:01,98,95,25,1.45,3.60,78,0.60,0.3,10,6,7,4213,3385,1125,17,191,67.5,32.1,0,1.6,2895.6,390.0,654
2019/05/20 22:04,98,95,27,1.29,3.00,78,0.65,0.0,10,6,7,4216,3393,1120,16,191,67.6,32.1,0,1.6,2895.6,400.0,719
2019/05/20 22:06,98,95,23,1.29,3.00,78,0.65,0.0,10,6,7,4194,3425,1107,16,191,67.5,32.3,0,1.6,2834.6400000000003,390.0,712
2019/05/20 22:08,98,95,23,1.27,3.00,78,0.65,0.1,10,6,7,4183,3441,1102,15,192,67.3,32.3,0,1.6,2834.6400000000003,390.0,712
2019/05/20 22:10,97,92,23,1.26,2.70,62,0.65,0.0,10,6,7,4167,3454,1091,15,193,67.2,32.3,0,1.6,2834.6400000000003,390.0,753
2019/05/20 22:12,96,92,23,1.26,2.50,51,0.65,0.5,10,6,7,4130,3464,1073,14,193,67.0,32.3,0,1.6,2804.16,380.0,786
2019/05/20 22:14,98,95,40,1.42,2.80,74,0.65,3.1,13,6,8,4136,3485,1073,14,193,66.7,32.3,0,1.6,2804.16,380.0,799
2019/05/20 22:16,98,95,40,1.42,2.80,74,0.65,0.0,13,6,8,4142,3509,1072,14,193,66.5,32.4,0,1.6,2804.16,380.0,806
2019/05/20 22:18,98,95,64,1.42,2.80,74,0.65,0.1,15,7,10,4138,3478,1068,14,192,65.9,32.3,0,1.6,2804.16,370.0,743
2019/05/20 22:20,98,95,69,1.30,2.60,78,0.65,1.7,15,8,10,4121,3504,1061,13,193,65.9,32.4,0,1.6,2804.16,370.0,736
2019/05/20 22:22,99,95,69,1.55,3.00,78,0.65,0.0,15,8,8,4109,3497,1055,13,193,65.9,32.4,0,1.6,2804.16,360.0,736
2019/05/20 22:24,99,95,69,1.66,3.20,78,0.65,0.0,15,8,10,4091,3519,1044,12,191,65.8,32.4,0,1.6,2773.68,360.0,788
2019/05/20 22:26,99,95,64,1.66,3.40,113,0.65,3.4,12,7,7,4396,3598,1068,11,185,66.2,32.7,0,1.6,2895.6,480.0,1260
2019/05/20 22:28,99,95,55,1.66,3.40,113,0.65,0.0,12,7,7,4120,3582,1019,11,185,66.0,32.5,0,1.6,2773.68,380.0,856
2019/05/20 22:30,99,95,45,1.58,3.40,113,0.65,0.0,12,7,8,4131,3597,1009,10,183,66.4,32.6,0,1.6,2773.68,390.0,801
2019/05/20 22:32,98,95,59,1.33,3.20,113,0.65,0.7,12,7,10,4358,3653,1052,11,187,66.8,32.8,0,1.6,2926.08,480.0,999
2019/05/20 22:34,98,95,56,1.27,3.20,74,0.65,0.0,14,6,10,4345,3655,1043,11,187,66.8,32.8,0,1.6,2895.6,470.0,1006
2019/05/20 22:36,98,95,56,1.18,3.20,112,0.51,0.9,15,6,10,4335,3660,1039,10,187,66.7,32.8,0,1.6,2895.6,470.0,1018
2019/05/20 22:38,99,95,55,1.44,3.30,112,0.51,0.0,15,6,8,4410,3700,1004,8,178,65.8,33.0,0,1.6,2895.6,520.0,1375
2019/05/20 22:40,99,95,55,1.44,3.30,139,0.51,2.0,15,6,8,4408,3700,1002,7,176,65.7,33.0,0,1.6,2895.6,520.0,1321
2019/05/20 22:42,99,95,42,1.44,3.30,139,0.51,0.0,15,6,8,4408,3699,1002,7,174,65.7,33.0,0,1.6,2895.6,530.0,1308
2019/05/20 22:44,98,95,42,1.41,3.30,139,0.51,0.0,12,6,8,4408,3699,1000,7,171,65.3,33.0,0,1.7,2895.6,540.0,1303
2019/05/20 22:46,98,95,47,1.48,3.30,139,0.51,0.0,12,7,7,4417,3710,1001,7,163,65.0,33.0,0,1.7,2895.6,590.0,1147
2019/05/20 22:48,98,95,38,1.69,3.50,98,0.51,0.0,12,7,7,4406,3699,998,7,165,64.8,33.0,0,1.7,2865.1200000000003,580.0,1239
2019/05/20 22:50,99,95,43,1.69,3.50,98,0.51,0.3,14,8,7,4413,3703,1001,7,159,64.8,33.0,0,1.7,2865.1200000000003,610.0,1171
2019/05/20 22:52,99,95,47,1.74,3.50,134,0.53,2.2,14,8,8,4417,3702,1000,7,157,64.5,33.0,0,1.7,2895.6,630.0,1119
2019/05/20 22:54,99,95,44,1.74,3.70,134,0.53,0.0,14,8,8,4413,3701,999,7,154,63.9,33.0,0,1.7,2895.6,650.0,1115
2019/05/20 22:56,99,95,51,1.74,3.70,134,0.53,0.0,14,8,8,4260,3710,1144,25,170,65.2,34.0,0,1.6,2895.6,670.0,1152
2019/05/20 22:58,99,95,57,1.73,3.70,134,0.53,0.1,14,9,8,4248,3704,1132,25,171,64.6,34.1,0,1.6,2895.6,710.0,1059
2019/05/20 23:00,99,95,57,1.73,3.70,90,0.53,0.0,14,9,8,4241,3701,1128,25,172,64.3,34.2,0,1.6,2895.6,730.0,1051
2019/05/20 23:03,99,95,51,1.72,3.70,78,0.53,0.0,14,9,7,4207,3688,1114,25,175,63.4,34.3,0,1.6,2895.6,760.0,1094
2019/05/20 23:05,99,95,58,1.61,3.60,78,0.53,0.0,14,9,7,4172,3671,1100,25,178,62.4,34.4,0,1.6,2895.6,800.0,1070
2019/05/20 23:08,98,95,46,1.49,3.60,72,0.53,1.8,15,8,6,4166,3677,1095,24,178,62.3,34.5,0,1.6,2895.6,830.0,1184
2019/05/20 23:10,99,95,46,1.49,3.50,109,0.53,5.9,15,8,7,4200,3701,1098,23,178,63.1,34.4,0,1.6,2895.6,800.0,1418
2019/05/20 23:12,98,95,56,1.37,3.30,109,0.53,0.0,18,8,7,4247,3721,1111,22,175,64.5,34.8,0,1.6,2895.6,910.0,1375
2019/05/20 23:14,99,95,56,1.48,3.30,109,0.53,0.0,13,8,7,4235,3722,1108,21,175,64.3,34.9,0,1.6,2895.6,940.0,1402
2019/05/20 23:16,99,95,59,1.48,3.30,109,0.53,0.4,23,8,8,4228,3715,1106,21,175,64.0,35.0,0,1.6,2895.6,980.0,1340
2019/05/20 23:18,99,95,74,1.61,3.50,84,0.53,0.1,23,10,7,4155,3691,1070,16,180,63.4,35.3,0,1.5,2926.08,1130.0,1048
2019/05/20 23:20,99,95,74,1.69,3.50,137,0.53,2.2,31,10,7,4166,3702,1060,15,180,63.9,35.4,0,1.5,2926.08,1160.0,1098
2019/05/20 23:22,99,95,67,1.69,3.60,137,0.53,0.0,31,10,7,4159,3691,1052,15,181,63.5,35.4,0,1.5,2926.08,1190.0,1062
2019/05/20 23:24,99,95,85,1.69,3.70,137,0.48,0.0,21,12,9,4173,3697,1035,14,180,63.4,35.5,0,1.5,2926.08,1240.0,1013
2019/05/20 23:26,99,95,85,1.67,3.70,137,0.48,0.0,21,12,9,4182,3710,1026,13,180,63.6,35.6,0,1.5,2926.08,1270.0,1003
2019/05/20 23:28,99,95,85,1.65,3.70,86,0.48,0.5,21,12,9,4197,3717,1011,13,180,63.6,35.7,0,1.5,2926.08,1310.0,961
2019/05/20 23:30,99,95,87,1.60,3.50,126,0.64,1.1,21,12,9,4219,3732,992,12,179,63.5,35.8,0,1.6,2926.08,1350.0,942
2019/05/20 23:32,99,95,82,1.60,3.50,126,0.64,0.0,17,10,9,4247,3751,971,11,178,63.5,35.9,0,1.6,2956.56,1400.0,876
2019/05/20 23:34,99,95,82,1.50,3.50,126,0.64,0.0,17,10,10,4263,3765,967,11,178,63.6,36.0,0,1.6,2956.56,1410.0,846
2019/05/20 23:36,99,95,82,1.53,3.50,126,0.64,0.2,16,10,8,4278,3776,962,10,177,63.6,36.1,0,1.6,2956.56,1450.0,874
2019/05/20 23:38,98,95,84,1.53,3.50,91,0.64,0.6,19,10,8,4289,3785,957,10,176,63.4,36.2,0,1.6,2956.56,1490.0,847
2019/05/20 23:40,98,95,76,1.53,3.50,95,0.64,0.1,19,10,8,4308,3803,955,9,175,63.6,36.3,0,1.6,2956.56,1530.0,854
2019/05/20 23:42,98,95,78,1.37,3.40,131,0.64,1.3,19,10,8,4307,3801,954,9,174,63.4,36.3,0,1.6,2956.56,1540.0,836
2019/05/20 23:44,98,95,80,1.37,3.40,131,0.64,0.0,19,11,8,4307,3802,951,9,173,63.1,36.3,0,1.6,2956.56,1560.0,798
2019/05/20 23:46,98,95,80,1.35,3.30,131,0.64,0.2,19,11,8,4312,3803,950,9,173,63.0,36.3,0,1.6,2956.56,1580.0,813
2019/05/20 23:48,98,95,84,1.35,3.20,131,0.64,0.0,21,12,8,4310,3800,948,9,172,62.8,36.3,0,1.6,2956.56,1600.0,775
2019/05/20 23:50,97,95,93,1.30,3.10,81,0.64,0.0,26,13,13,4381,3883,941,7,170,62.9,36.7,0,1.6,2987.0400000000004,1740.0,654
2019/05/20 23:52,97,95,93,1.27,3.10,81,0.64,0.5,23,13,13,4392,3925,953,6,171,64.2,37.2,0,1.6,2987.0400000000004,1760.0,787
2019/05/20 23:54,92,95,93,1.09,2.80,73,0.64,0.0,23,13,13,4026,3628,922,10,172,57.3,39.7,0,1.7,3017.5200000000004,1840.0,652
2019/05/20 23:56,95,95,93,1.09,2.80,114,0.64,5.0,23,13,13,4039,3648,928,9,175,57.5,39.8,0,1.7,3017.5200000000004,1870.0,782
2019/05/20 23:58,95,95,91,1.09,2.60,117,0.64,0.1,20,11,9,4071,3689,934,9,177,57.6,40.1,0,1.7,3017.5200000000004,1920.0,786
2019/05/21 00:00,96,95,89,1.10,2.70,117,0.64,0.0,17,10,9,4111,3729,944,9,178,57.8,40.4,0,1.7,3017.5200000000004,1990.0,746
2019/05/21 00:02,97,95,77,1.23,2.90,117,0.54,0.0,17,10,7,4131,3739,947,9,179,57.9,40.5,0,1.7,3017.5200000000004,2029.9999999999998,773
2019/05/21 00:04,97,95,79,1.25,3.10,117,0.54,0.0,17,10,10,4153,3743,950,9,181,58.0,40.6,0,1.7,3048.0,2070.0,765
2019/05/21 00:06,97,95,81,1.47,3.10,81,0.54,0.5,17,10,10,4201,3732,954,8,184,58.9,40.7,0,1.7,3048.0,2130.0,910
2019/05/21 00:08,98,95,86,1.51,3.20,128,0.56,2.6,18,10,11,4248,3724,959,8,187,59.1,40.9,0,1.7,3048.0,2200.0,954
2019/05/21 00:10,98,95,86,1.51,3.20,132,0.56,0.1,18,10,11,4322,3717,968,8,192,59.3,41.0,0,1.7,3048.0,2270.0,921
2019/05/21 00:12,98,95,86,1.51,3.20,132,0.56,0.0,19,10,10,4367,3710,973,8,196,59.5,41.1,0,1.7,3048.0,2310.0,962
2019/05/21 00:14,98,95,85,1.41,3.20,132,0.56,0.1,19,10,9,4479,3695,987,8,206,59.8,41.4,0,1.7,3078.48,2330.0,958
2019/05/21 00:16,98,95,84,1.41,3.20,132,0.56,0.1,19,10,9,4554,3683,998,7,212,60.5,41.5,0,1.7,3078.48,2330.0,997
2019/05/21 00:18,97,95,80,1.50,3.60,87,0.56,0.1,16,10,10,4603,3683,1005,7,216,61.0,41.6,0,1.7,3078.48,2330.0,999
2019/05/21 00:20,98,95,81,1.50,3.60,102,0.56,0.6,16,10,9,4709,3650,1025,6,225,61.9,41.9,0,1.7,3108.96,2370.0,797
2019/05/21 00:22,98,95,81,1.54,3.60,125,0.56,0.9,16,10,8,4687,3661,1020,7,223,61.0,41.8,0,1.7,3078.48,2290.0,976
2019/05/21 00:24,98,95,76,1.68,3.40,125,0.56,0.0,16,10,9,4709,3638,1023,7,226,60.9,41.8,0,1.7,3108.96,2290.0,970
2019/05/21 00:26,98,95,77,1.68,3.50,125,0.56,0.0,16,10,9,4755,3609,1032,6,230,60.7,41.9,0,1.7,3108.96,2270.0,941
2019/05/21 00:28,98,95,53,1.70,3.60,125,0.56,0.0,13,8,9,4761,3602,1033,6,230,60.8,41.9,0,1.7,3108.96,2280.0,903
2019/05/21 00:30,97,95,69,1.70,3.70,74,0.56,0.0,14,8,11,4796,3581,1039,6,233,61.1,42.0,0,1.8,3108.96,2270.0,804
2019/05/21 00:32,97,95,78,1.70,3.70,72,0.56,0.2,18,8,10,4778,3592,1036,6,232,61.1,42.0,0,1.8,3108.96,2280.0,935
2019/05/21 00:34,96,95,78,1.46,3.70,68,0.56,0.1,18,8,9,4783,3583,1035,5,232,61.4,42.1,0,1.8,3108.96,2290.0,892
2019/05/21 00:36,95,95,74,1.21,3.00,76,0.56,2.1,18,8,9,4800,3562,1036,5,234,61.4,42.2,0,1.8,3108.96,2260.0,935
2019/05/21 00:38,92,95,55,1.07,3.00,79,0.56,0.7,15,7,9,4813,3554,1041,5,235,61.6,42.3,0,1.8,3108.96,2220.0,991
2019/05/21 00:40,93,95,61,1.13,2.90,88,0.56,2.1,14,8,8,4821,3538,1042,5,236,61.4,42.4,0,1.8,3139.4400000000005,2140.0,952
2019/05/21 00:42,96,95,60,1.23,3.10,116,0.55,11.0,14,8,8,4833,3520,1042,5,237,60.3,42.5,0,1.8,3139.4400000000005,2040.0,911
2019/05/21 00:44,98,95,50,1.69,3.50,128,0.55,1.3,14,8,8,4829,3515,1041,5,237,60.0,42.5,0,1.8,3139.4400000000005,1980.0,929
2019/05/21 00:46,98,95,59,1.69,3.60,128,0.55,0.0,17,8,7,4821,3515,1041,5,237,59.9,42.5,0,1.8,3139.4400000000005,1950.0,901
2019/05/21 00:48,98,95,59,1.69,3.60,128,0.55,0.5,17,8,7,4819,3513,1039,5,237,59.8,42.6,0,1.8,3139.4400000000005,1920.0,961
2019/05/21 00:50,97,95,52,1.45,3.60,128,0.55,0.0,17,8,6,4819,3511,1039,5,238,59.8,42.6,0,1.8,3139.4400000000005,1900.0,955
2019/05/21 00:52,98,95,52,1.56,3.40,133,0.55,1.5,17,8,7,4812,3508,1034,5,238,59.9,42.6,0,1.8,3139.4400000000005,1880.0,1071
2019/05/21 00:54,98,95,46,1.61,3.40,133,0.55,0.0,17,7,7,4812,3506,1032,5,238,59.8,42.7,0,1.8,3139.4400000000005,1860.0,1075
2019/05/21 00:56,98,95,56,1.74,3.60,133,0.55,0.0,18,7,8,4797,3506,1028,5,239,59.8,42.7,0,1.8,3169.92,1840.0,1102
2019/05/21 00:58,98,95,55,1.74,3.60,133,0.55,0.2,18,7,8,4780,3503,1019,6,240,59.8,42.8,0,1.8,3169.92,1790.0,1070
2019/05/21 01:00,97,95,55,1.76,3.60,93,0.55,0.1,18,7,8,4747,3499,1008,6,243,59.7,42.8,0,1.8,3169.92,1720.0,1041
2019/05/21 01:02,98,95,55,1.76,3.50,103,0.55,0.4,15,7,8,4652,3491,990,6,245,59.7,42.9,0,1.8,3169.92,1660.0,1095
2019/05/21 01:04,98,95,79,1.76,3.60,103,0.55,0.0,15,9,10,4528,3489,971,7,248,59.8,43.0,0,1.8,3169.92,1590.0,1057
2019/05/21 01:06,96,95,82,1.53,3.60,103,0.55,0.0,15,9,13,4451,3490,958,7,250,59.9,43.1,0,1.8,3169.92,1560.0,1066
2019/05/21 01:08,96,95,82,1.55,3.60,103,0.55,0.3,15,9,13,4326,3495,940,8,254,60.2,43.2,0,1.8,3200.4,1500.0,1119
2019/05/21 01:10,96,95,77,1.55,3.50,103,0.55,0.8,15,8,13,4252,3498,930,8,256,60.3,43.3,0,1.8,3200.4,1460.0,1152
2019/05/21 01:12,94,95,84,1.55,3.60,99,0.55,0.0,19,8,16,4131,3501,920,9,261,60.6,43.4,0,1.9,3200.4,1400.0,1058
2019/05/21 01:14,94,95,88,1.57,3.70,99,0.55,0.7,19,9,16,4056,3504,915,9,265,60.9,43.5,0,1.9,3200.4,1340.0,1063
2019/05/21 01:16,94,95,88,1.57,3.70,99,0.50,0.3,19,9,12,4059,3507,916,9,265,60.9,43.5,0,1.9,3200.4,1350.0,1158
2019/05/21 01:18,95,95,93,1.57,3.70,102,0.50,1.1,23,14,12,4053,3508,914,10,266,61.1,43.6,0,1.9,3200.4,1330.0,1166
2019/05/21 01:20,95,95,93,1.65,3.30,104,0.50,0.4,23,14,11,4043,3510,912,10,269,61.3,43.7,0,1.9,3200.4,1270.0,1173
2019/05/21 01:22,96,95,93,1.69,3.30,104,0.50,0.0,23,14,10,4033,3514,912,10,271,61.5,43.8,0,1.9,3230.88,1210.0,1143
2019/05/21 01:24,96,95,91,1.69,3.30,104,0.50,0.4,18,12,11,4030,3520,912,10,271,61.6,43.8,0,1.9,3230.88,1160.0,1152
2019/05/21 01:26,93,95,91,1.69,3.30,104,0.51,0.0,16,10,13,3306,3195,824,19,301,57.8,41.5,0,1.9,3230.88,1120.0,1117
2019/05/21 01:28,93,95,90,1.61,3.20,102,0.51,0.0,16,10,12,3303,3197,824,19,303,58.7,41.8,0,1.9,3230.88,1090.0,1071
2019/05/21 01:30,89,95,88,1.32,3.00,102,0.51,0.0,14,9,9,3291,3193,823,18,305,59.9,42.0,0,1.9,3230.88,1020.0,983
2019/05/21 01:32,91,95,87,1.32,3.10,129,0.51,15.1,18,8,13,3288,3194,823,17,306,60.6,42.2,0,1.9,3230.88,990.0,1007
2019/05/21 01:34,90,95,89,1.27,3.10,129,0.51,0.0,24,9,12,3278,3199,822,16,309,61.5,42.4,0,1.9,3230.88,950.0,932
2019/05/21 01:36,90,95,89,1.27,3.10,129,0.51,0.0,24,9,10,3273,3208,822,15,312,61.9,42.6,0,1.9,3230.88,900.0,963
2019/05/21 01:38,83,95,89,1.07,2.80,129,0.51,0.2,24,9,10,3290,3231,827,15,316,62.6,42.9,0,1.9,3261.36,860.0,1002
2019/05/21 01:40,78,95,81,0.96,2.60,132,0.54,1.6,16,8,11,3330,3260,838,14,321,63.1,43.1,0,1.9,3261.36,820.0,950
2019/05/21 01:42,88,95,75,1.25,2.60,132,0.54,0.0,13,7,16,3353,3271,844,14,323,63.4,43.2,0,1.9,3261.36,790.0,985
2019/05/21 01:44,93,95,81,1.46,3.30,132,0.54,0.2,16,7,21,3369,3279,849,14,325,63.6,43.3,0,1.9,3261.36,770.0,921
2019/05/21 01:46,94,95,81,1.46,3.30,134,0.54,1.6,16,7,18,3403,3298,858,13,327,63.9,43.5,0,1.9,3261.36,700.0,922
2019/05/21 01:48,94,95,81,1.46,3.30,137,0.54,0.1,16,7,18,3422,3306,863,13,329,64.0,43.6,0,1.9,3261.36,680.0,895
2019/05/21 01:50,87,95,81,1.13,2.90,137,0.54,0.0,13,7,19,3471,3322,873,13,332,64.1,43.7,0,1.9,3261.36,650.0,818
2019/05/21 01:52,78,95,81,0.92,2.20,144,0.54,1.0,13,7,13,3470,3322,870,13,330,64.0,43.9,0,1.9,3261.36,570.0,858
2019/05/21 01:54,76,95,74,0.98,2.10,144,0.59,0.0,13,7,13,3122,3096,818,26,323,56.8,43.0,0,1.9,3261.36,540.0,811
2019/05/21 01:56,76,95,84,0.98,2.10,144,0.59,0.0,13,7,13,3162,3135,821,25,326,57.6,43.1,0,1.9,3291.84,500.0,822
2019/05/21 01:58,76,92,79,0.98,1.90,144,0.59,0.1,18,6,14,3186,3165,824,24,327,58.2,43.1,0,1.9,3291.84,470.0,819
2019/05/21 02:00,58,97,87,0.84,1.90,94,0.59,0.0,12,8,16,3210,3191,826,24,329,58.4,43.1,0,1.9,3291.84,450.0,829
2019/05/21 02:02,43,97,87,0.69,1.90,78,0.59,0.7,12,8,13,3258,3235,829,23,327,58.5,43.3,0,1.9,3291.84,400.0,853
2019/05/21 02:04,52,97,76,0.79,2.00,78,0.59,0.0,12,8,23,3281,3257,833,22,329,58.9,43.2,0,1.9,3291.84,390.0,898
2019/05/21 02:06,65,95,76,0.95,2.20,71,0.59,0.0,12,8,15,3300,3276,835,22,329,59.0,43.3,0,1.9,3291.84,370.0,900
2019/05/21 02:08,70,95,72,1.02,2.40,89,0.63,2.4,12,7,16,3343,3311,840,21,327,59.0,43.5,0,1.9,3291.84,320.0,778
2019/05/21 02:10,83,95,75,1.28,3.30,89,0.63,0.0,13,7,17,3359,3327,843,20,329,59.2,43.5,0,1.9,3291.84,300.0,803
2019/05/21 02:12,83,95,93,1.28,3.30,90,0.63,1.3,25,15,13,3380,3347,849,20,328,59.0,43.6,0,1.9,3291.84,270.0,762
2019/05/21 02:14,89,95,93,1.28,3.30,122,0.63,1.1,25,15,11,3408,3346,857,20,321,57.9,43.8,0,1.9,3291.84,220.0,887
2019/05/21 02:16,88,95,93,1.24,3.00,122,0.63,0.0,25,15,11,3440,3328,857,20,304,54.3,43.9,0,1.9,3291.84,230.0,1039
2019/05/21 02:18,91,95,77,1.38,3.50,122,0.63,0.0,12,7,13,3465,3354,867,19,310,55.6,43.9,0,1.9,3291.84,200.0,984
2019/05/21 02:20,91,95,72,1.38,3.50,122,0.63,0.2,12,7,12,3472,3355,869,18,305,54.9,44.0,0,1.9,3291.84,180.0,1021
2019/05/21 02:22,87,95,72,1.38,3.50,88,0.63,0.1,10,7,12,3481,3368,871,18,306,55.6,44.0,0,1.9,3291.84,170.0,944
2019/05/21 02:24,73,95,77,0.94,3.00,111,0.63,1.1,12,8,10,3506,3391,873,17,308,56.2,44.0,0,1.9,3291.84,150.0,849
2019/05/21 02:26,76,95,77,0.94,2.70,111,0.63,0.0,12,8,10,3494,3412,879,16,310,57.3,44.1,0,1.9,3291.84,120.0,769
2019/05/21 02:28,67,95,70,0.80,2.50,111,0.63,0.0,12,8,10,3513,3400,879,16,305,55.8,44.1,0,1.9,3291.84,130.0,828
2019/05/21 02:30,61,97,70,0.70,2.20,111,0.63,0.0,11,8,10,3520,3410,882,15,305,56.2,44.1,0,1.9,3291.84,110.0,786
2019/05/21 02:32,51,97,83,0.61,1.90,107,0.63,0.0,20,8,10,3498,3451,883,13,316,59.6,44.2,0,1.9,3322.32,70.0,517
2019/05/21 02:34,22,90,84,0.45,1.40,70,0.63,0.0,20,9,8,3491,3447,886,13,314,59.1,44.2,0,1.9,3322.32,40.0,419
2019/05/21 02:36,20,89,86,0.45,1.20,65,0.63,0.7,20,9,6,3494,3452,890,12,316,59.5,44.3,0,1.9,3322.32,30.0,332
2019/05/21 02:38,14,76,76,0.42,1.10,40,0.63,0.0,20,9,6,3493,3452,890,12,316,59.5,44.3,0,1.9,3322.32,40.0,300
2019/05/21 02:40,14,71,75,0.42,1.10,40,0.58,0.0,20,11,6,3486,3444,895,13,317,59.6,44.3,0,1.9,3322.32,40.0,273
2019/05/21 02:42,14,76,79,0.42,1.10,40,0.58,0.6,20,11,7,3485,3437,897,13,319,59.9,44.3,0,1.9,3322.32,60.0,236
2019/05/21 02:44,18,76,79,0.45,1.10,40,0.58,0.0,22,18,7,3485,3431,896,13,322,60.4,44.3,0,1.9,3322.32,90.0,293
2019/05/21 02:46,15,78,83,0.45,1.30,37,0.58,0.5,24,18,8,3485,3420,893,13,328,61.3,44.3,0,1.9,3322.32,130.0,336
2019/05/21 02:48,18,78,83,0.45,1.30,37,0.58,0.0,23,21,8,3481,3376,902,14,315,59.2,44.1,0,1.9,3291.84,120.0,178
2019/05/21 02:50,12,72,83,0.42,1.30,29,0.58,0.0,23,21,8,3484,3362,901,13,317,59.7,44.0,0,1.9,3291.84,160.0,126
2019/05/21 02:52,3,65,88,0.24,1.00,29,0.58,0.0,23,21,10,3140,2843,822,10,284,57.5,40.4,0,2.0,3261.36,180.0,59
2019/05/21 02:54,3,65,88,0.22,1.00,28,0.58,0.0,26,22,8,3171,2879,832,9,287,58.3,40.5,0,2.0,3261.36,220.0,81
2019/05/21 02:56,4,62,88,0.30,1.00,23,0.51,1.9,26,22,9,3180,2802,837,8,279,56.0,40.5,0,2.0,3230.88,280.0,110
2019/05/21 02:58,4,65,86,0.31,1.10,27,0.46,0.4,26,22,9,3202,2752,840,8,274,54.3,40.4,0,2.0,3230.88,320.0,122
2019/05/21 03:00,4,56,92,0.31,1.10,27,0.46,0.0,23,22,12,3230,2730,841,7,272,53.0,40.4,0,2.0,3230.88,350.0,91
2019/05/21 03:02,4,62,92,0.31,1.10,30,0.47,1.9,27,22,20,3290,2669,838,6,267,50.3,40.2,0,2.0,3200.4,430.0,169
2019/05/21 03:04,5,66,91,0.39,1.10,30,0.47,0.0,27,22,19,3306,2666,835,5,267,49.8,40.2,0,2.0,3169.92,460.0,153
2019/05/21 03:06,5,65,91,0.39,1.10,30,0.47,0.0,27,22,22,3338,2639,833,5,266,49.1,40.2,0,2.0,3169.92,500.0,100
2019/05/21 03:08,10,86,89,0.44,1.20,43,0.47,2.6,27,16,20,3152,2340,824,20,269,47.8,39.9,0,1.9,3169.92,680.0,295
2019/05/21 03:10,12,87,87,0.45,1.50,44,0.47,0.0,27,16,14,3085,2226,813,35,272,47.6,39.4,0,1.9,3169.92,760.0,298
2019/05/21 03:12,12,87,82,0.45,1.50,44,0.47,0.0,27,16,14,3064,2195,812,44,275,47.9,39.2,0,1.9,3200.4,810.0,242
2019/05/21 03:14,13,78,21,0.45,1.50,48,0.48,0.3,16,5,14,3036,2080,809,71,287,47.5,38.6,0,1.9,3200.4,930.0,247
2019/05/21 03:16,9,78,5,0.37,1.40,48,0.48,0.0,5,5,5,3040,2182,809,76,288,48.7,38.4,0,1.9,3230.88,960.0,296
2019/05/21 03:18,8,78,3,0.37,1.40,48,0.48,0.0,7,5,5,2996,2020,796,105,294,46.7,38.0,0,1.9,3230.88,1070.0,207
2019/05/21 03:20,10,78,2,0.45,1.40,48,0.48,0.5,7,5,10,2990,2047,791,115,292,46.9,37.8,0,1.9,3230.88,1110.0,205
2019/05/21 03:22,12,73,2,0.56,1.70,37,0.48,0.0,7,5,8,2964,1994,781,133,294,46.7,37.6,0,1.9,3230.88,1170.0,169
2019/05/21 03:24,19,74,1,0.56,1.70,53,0.52,3.8,3,3,4,2955,1986,778,140,295,46.9,37.5,0,1.9,3230.88,1200.0,191
2019/05/21 03:26,19,62,1,0.56,1.70,53,0.52,0.0,3,3,6,2927,1963,772,159,295,47.3,37.3,0,1.9,3230.88,1270.0,205
2019/05/21 03:28,16,65,0,0.54,1.60,53,0.52,0.1,3,3,5,2918,1939,770,168,300,47.4,37.2,0,1.9,3230.88,1310.0,217
2019/05/21 03:30,13,71,1,0.47,1.40,53,0.52,0.0,7,4,7,2934,1957,766,176,311,47.6,36.9,0,1.9,3230.88,1390.0,300
2019/05/21 03:32,13,71,1,0.47,1.40,51,0.52,0.0,7,4,6,2953,1950,763,176,318,47.6,36.8,0,1.9,3230.88,1410.0,310
2019/05/21 03:34,6,46,0,0.40,1.30,31,0.29,0.0,5,4,6,2973,1984,766,172,308,47.6,36.8,0,1.9,3230.88,1410.0,367
2019/05/21 03:36,4,46,0,0.33,1.30,36,0.28,0.0,5,4,4,3014,2008,758,168,321,47.4,36.6,0,1.9,3230.88,1380.0,349
2019/05/21 03:38,8,49,0,0.38,1.50,44,0.28,0.0,7,3,4,3032,2030,745,161,330,47.2,36.5,0,1.8,3230.88,1350.0,421
2019/05/21 03:40,8,55,0,0.33,1.40,53,0.34,0.2,6,4,4,3038,2044,743,160,332,47.2,36.5,0,1.8,3230.88,1350.0,384
2019/05/21 03:42,8,55,0,0.31,1.20,52,0.35,0.1,6,4,5,3065,2071,727,138,341,47.1,36.4,0,1.8,3230.88,1290.0,372
2019/05/21 03:44,13,73,1,0.37,1.30,64,0.48,0.3,11,5,6,3081,2090,722,124,341,47.1,36.3,0,1.8,3230.88,1250.0,366
2019/05/21 03:46,6,66,2,0.30,1.20,45,0.33,0.0,11,6,6,3114,2083,707,83,351,47.0,36.2,0,1.8,3230.88,1190.0,306
2019/05/21 03:48,3,54,2,0.20,1.30,33,0.28,0.0,5,4,6,3184,2124,699,51,351,47.0,36.1,0,1.8,3230.88,1130.0,257
2019/05/21 03:50,2,55,4,0.29,1.40,22,0.28,0.0,6,5,7,3268,2209,702,42,340,47.1,35.9,0,1.9,3230.88,1060.0,243